sat.trackr.live / text

‹ back to catalog

CHINASAT 3B

NORAD 64062 · 2025-106A

PAYLOAD ACTIVE UNKNOWN

§ Identity

Operator
Country
PRC
Launch date
2025-05-20
Launch site
WSC
Launch vehicle
Mass (kg)
RCS (m²)

Purposes: comms

External: N2YO · Heavens-Above · Gunter

§ Orbital elements

Epoch: 2026-05-25T02:49:43.078080Z

Period
1,436.09 min
Inclination
0.0392°
Eccentricity
0.0002272
Mean motion
1.00272240 rev/d
Perigee alt
35,776.9 km
Apogee alt
35,796.0 km
Semi-major
42,164.6 km
B*
0.0000e+0
RAAN
92.0520°
Arg perigee
6.0997°
Mean anomaly
354.3121°
Rev number
383

§ Raw data

CHINASAT 3B1 64062U 25106A   26145.11785970 -.00000047  00000+0  00000+0 0  99982 64062   0.0392  92.0520 0002272   6.0997 354.3121  1.00272240  3837

JSON: /api/v1/satellites/64062 · /tle

For live sub-satellite position, see the globe view (requires WebGL).

§ Visibility from observer

Set your observer location to see the next 7 days of passes ≥ 10°. The values pass through the URL so the page stays shareable.

No JS? Fill the form by hand. The geolocation button needs JavaScript.